Year,Month,Day,Hour,Minute,Value (Times are PST for temperature in C)
2016,07,22,00,00,18.80
2016,07,22,00,01,18.80
2016,07,22,00,02,18.70
2016,07,22,00,03,18.60
2016,07,22,00,04,18.50
2016,07,22,00,05,18.40
2016,07,22,00,06,18.30
2016,07,22,00,07,18.30
2016,07,22,00,08,18.30
2016,07,22,00,09,18.20
2016,07,22,00,10,18.20
2016,07,22,00,11,18.10
2016,07,22,00,12,18.00
2016,07,22,00,13,17.90
2016,07,22,00,14,17.90
2016,07,22,00,15,17.80
2016,07,22,00,16,17.80
2016,07,22,00,17,17.80
2016,07,22,00,18,17.80
2016,07,22,00,19,17.80
2016,07,22,00,20,17.80
2016,07,22,00,21,17.80
2016,07,22,00,22,17.80
2016,07,22,00,23,17.80
2016,07,22,00,24,17.80
2016,07,22,00,25,17.80
2016,07,22,00,26,17.80
2016,07,22,00,27,17.80
2016,07,22,00,28,17.80
2016,07,22,00,29,17.90
2016,07,22,00,30,17.90
2016,07,22,00,31,17.90
2016,07,22,00,32,17.90
2016,07,22,00,33,17.90
2016,07,22,00,34,17.90
2016,07,22,00,35,17.90
2016,07,22,00,36,18.00
2016,07,22,00,37,18.00
2016,07,22,00,38,18.00
2016,07,22,00,39,18.00
2016,07,22,00,40,17.90
2016,07,22,00,41,17.90
2016,07,22,00,42,17.90
2016,07,22,00,43,17.80
2016,07,22,00,44,17.80
2016,07,22,00,45,17.70
2016,07,22,00,46,17.70
2016,07,22,00,47,17.60
2016,07,22,00,48,17.60
2016,07,22,00,49,17.50
2016,07,22,00,50,17.50
2016,07,22,00,51,17.40
2016,07,22,00,52,17.40
2016,07,22,00,53,17.30
2016,07,22,00,54,17.30
2016,07,22,00,55,17.20
2016,07,22,00,56,17.20
2016,07,22,00,57,17.20
2016,07,22,00,58,17.20
2016,07,22,00,59,17.20
2016,07,22,01,00,17.30
2016,07,22,01,01,17.40
2016,07,22,01,02,17.50
2016,07,22,01,03,17.50
2016,07,22,01,04,17.50
2016,07,22,01,05,17.50
2016,07,22,01,06,17.40
2016,07,22,01,07,17.40
2016,07,22,01,08,17.40
2016,07,22,01,09,17.40
2016,07,22,01,10,17.40
2016,07,22,01,11,17.30
2016,07,22,01,12,17.30
2016,07,22,01,13,17.30
2016,07,22,01,14,17.30
2016,07,22,01,15,17.20
2016,07,22,01,16,17.20
2016,07,22,01,17,17.20
2016,07,22,01,18,17.20
2016,07,22,01,19,17.20
2016,07,22,01,20,17.10
2016,07,22,01,21,17.10
2016,07,22,01,22,17.10
2016,07,22,01,23,17.00
2016,07,22,01,24,17.00
2016,07,22,01,25,17.00
2016,07,22,01,26,17.00
2016,07,22,01,27,17.00
2016,07,22,01,28,17.00
2016,07,22,01,29,17.00
2016,07,22,01,30,16.90
2016,07,22,01,31,16.90
2016,07,22,01,32,16.90
2016,07,22,01,33,16.90
2016,07,22,01,34,16.90
2016,07,22,01,35,16.80
2016,07,22,01,36,16.80
2016,07,22,01,37,16.70
2016,07,22,01,38,16.70
2016,07,22,01,39,16.70
2016,07,22,01,40,16.70
2016,07,22,01,41,16.70
2016,07,22,01,42,16.60
2016,07,22,01,43,16.60
2016,07,22,01,44,16.50
2016,07,22,01,45,16.50
2016,07,22,01,46,16.50
2016,07,22,01,47,16.40
2016,07,22,01,48,16.40
2016,07,22,01,49,16.30
2016,07,22,01,50,16.20
2016,07,22,01,51,16.20
2016,07,22,01,52,16.10
2016,07,22,01,53,16.10
2016,07,22,01,54,16.00
2016,07,22,01,55,16.00
2016,07,22,01,56,15.90
2016,07,22,01,57,15.90
2016,07,22,01,58,15.90
2016,07,22,01,59,15.90
2016,07,22,02,00,15.90
2016,07,22,02,01,16.00
2016,07,22,02,02,16.00
2016,07,22,02,03,16.00
2016,07,22,02,04,16.10
2016,07,22,02,05,16.10
2016,07,22,02,06,16.10
2016,07,22,02,07,16.10
2016,07,22,02,08,16.10
2016,07,22,02,09,16.20
2016,07,22,02,10,16.20
2016,07,22,02,11,16.30
2016,07,22,02,12,16.30
2016,07,22,02,13,16.40
2016,07,22,02,14,16.30
2016,07,22,02,15,16.30
2016,07,22,02,16,16.30
2016,07,22,02,17,16.30
2016,07,22,02,18,16.30
2016,07,22,02,19,16.30
2016,07,22,02,20,16.40
2016,07,22,02,21,16.50
2016,07,22,02,22,16.50
2016,07,22,02,23,16.60
2016,07,22,02,24,16.60
2016,07,22,02,25,16.50
2016,07,22,02,26,16.40
2016,07,22,02,27,16.30
2016,07,22,02,28,16.20
2016,07,22,02,29,16.10
2016,07,22,02,30,16.10
2016,07,22,02,31,16.00
2016,07,22,02,32,16.00
2016,07,22,02,33,15.90
2016,07,22,02,34,15.90
2016,07,22,02,35,15.80
2016,07,22,02,36,15.80
2016,07,22,02,37,15.70
2016,07,22,02,38,15.60
2016,07,22,02,39,15.60
2016,07,22,02,40,15.50
2016,07,22,02,41,15.50
2016,07,22,02,42,15.40
2016,07,22,02,43,15.40
2016,07,22,02,44,15.30
2016,07,22,02,45,15.30
2016,07,22,02,46,15.30
2016,07,22,02,47,15.20
2016,07,22,02,48,15.20
2016,07,22,02,49,15.10
2016,07,22,02,50,15.10
2016,07,22,02,51,15.00
2016,07,22,02,52,15.00
2016,07,22,02,53,14.90
2016,07,22,02,54,14.80
2016,07,22,02,55,14.80
2016,07,22,02,56,14.80
2016,07,22,02,57,14.80
2016,07,22,02,58,14.80
2016,07,22,02,59,14.80
2016,07,22,03,00,14.80
2016,07,22,03,01,14.80
2016,07,22,03,02,14.80
2016,07,22,03,03,14.80
2016,07,22,03,04,14.80
2016,07,22,03,05,14.80
2016,07,22,03,06,14.80
2016,07,22,03,07,14.80
2016,07,22,03,08,14.80
2016,07,22,03,09,14.70
2016,07,22,03,10,14.70
2016,07,22,03,11,14.70
2016,07,22,03,12,14.70
2016,07,22,03,13,14.70
2016,07,22,03,14,14.70
2016,07,22,03,15,14.80
2016,07,22,03,16,14.80
2016,07,22,03,17,14.80
2016,07,22,03,18,14.80
2016,07,22,03,19,14.90
2016,07,22,03,20,14.90
2016,07,22,03,21,14.90
2016,07,22,03,22,14.90
2016,07,22,03,23,14.90
2016,07,22,03,24,14.90
2016,07,22,03,25,14.90
2016,07,22,03,26,14.90
2016,07,22,03,27,14.90
2016,07,22,03,28,14.90
2016,07,22,03,29,14.90
2016,07,22,03,30,14.90
2016,07,22,03,31,14.90
2016,07,22,03,32,14.90
2016,07,22,03,33,14.90
2016,07,22,03,34,14.90
2016,07,22,03,35,14.90
2016,07,22,03,36,14.90
2016,07,22,03,37,14.80
2016,07,22,03,38,14.80
2016,07,22,03,39,14.80
2016,07,22,03,40,14.80
2016,07,22,03,41,14.80
2016,07,22,03,42,14.70
2016,07,22,03,43,14.70
2016,07,22,03,44,14.70
2016,07,22,03,45,14.70
2016,07,22,03,46,14.70
2016,07,22,03,47,14.60
2016,07,22,03,48,14.60
2016,07,22,03,49,14.50
2016,07,22,03,50,14.50
2016,07,22,03,51,14.40
2016,07,22,03,52,14.30
2016,07,22,03,53,14.30
2016,07,22,03,54,14.20
2016,07,22,03,55,14.20
2016,07,22,03,56,14.20
2016,07,22,03,57,14.10
2016,07,22,03,58,14.10
2016,07,22,03,59,14.10
2016,07,22,04,00,14.10
2016,07,22,04,01,14.10
2016,07,22,04,02,14.00
2016,07,22,04,03,14.00
2016,07,22,04,04,14.00
2016,07,22,04,05,14.00
2016,07,22,04,06,13.90
2016,07,22,04,07,13.90
2016,07,22,04,08,13.90
2016,07,22,04,09,13.90
2016,07,22,04,10,13.90
2016,07,22,04,11,13.90
2016,07,22,04,12,13.80
2016,07,22,04,13,13.80
2016,07,22,04,14,13.80
2016,07,22,04,15,13.90
2016,07,22,04,16,13.90
2016,07,22,04,17,13.90
2016,07,22,04,18,13.90
2016,07,22,04,19,13.90
2016,07,22,04,20,13.90
2016,07,22,04,21,13.90
2016,07,22,04,22,13.90
2016,07,22,04,23,13.80
2016,07,22,04,24,13.80
2016,07,22,04,25,13.80
2016,07,22,04,26,13.80
2016,07,22,04,27,13.80
2016,07,22,04,28,13.80
2016,07,22,04,29,13.70
2016,07,22,04,30,13.70
2016,07,22,04,31,13.70
2016,07,22,04,32,13.70
2016,07,22,04,33,13.70
2016,07,22,04,34,13.60
2016,07,22,04,35,13.60
2016,07,22,04,36,13.50
2016,07,22,04,37,13.50
2016,07,22,04,38,13.40
2016,07,22,04,39,13.40
2016,07,22,04,40,13.40
2016,07,22,04,41,13.30
2016,07,22,04,42,13.30
2016,07,22,04,43,13.30
2016,07,22,04,44,13.30
2016,07,22,04,45,13.20
2016,07,22,04,46,13.20
2016,07,22,04,47,13.20
2016,07,22,04,48,13.20
2016,07,22,04,49,13.20
2016,07,22,04,50,13.30
2016,07,22,04,51,13.30
2016,07,22,04,52,13.30
2016,07,22,04,53,13.30
2016,07,22,04,54,13.30
2016,07,22,04,55,13.30
2016,07,22,04,56,13.20
2016,07,22,04,57,13.20
2016,07,22,04,58,13.20
2016,07,22,04,59,13.20
2016,07,22,05,00,13.20
2016,07,22,05,01,13.10
2016,07,22,05,02,13.10
2016,07,22,05,03,13.10
2016,07,22,05,04,13.10
2016,07,22,05,05,13.00
2016,07,22,05,06,13.00
2016,07,22,05,07,12.90
2016,07,22,05,08,12.90
2016,07,22,05,09,12.90
2016,07,22,05,10,12.80
2016,07,22,05,11,12.80
2016,07,22,05,12,12.80
2016,07,22,05,13,12.80
2016,07,22,05,14,12.80
2016,07,22,05,15,12.80
2016,07,22,05,16,12.90
2016,07,22,05,17,12.90
2016,07,22,05,18,12.90
2016,07,22,05,19,13.00
2016,07,22,05,20,13.00
2016,07,22,05,21,13.10
2016,07,22,05,22,13.10
2016,07,22,05,23,13.20
2016,07,22,05,24,13.20
2016,07,22,05,25,13.20
2016,07,22,05,26,13.20
2016,07,22,05,27,13.30
2016,07,22,05,28,13.20
2016,07,22,05,29,13.20
2016,07,22,05,30,13.20
2016,07,22,05,31,13.20
2016,07,22,05,32,13.10
2016,07,22,05,33,13.10
2016,07,22,05,34,13.20
2016,07,22,05,35,13.30
2016,07,22,05,36,13.50
2016,07,22,05,37,13.60
2016,07,22,05,38,13.70
2016,07,22,05,39,13.70
2016,07,22,05,40,13.80
2016,07,22,05,41,13.80
2016,07,22,05,42,13.80
2016,07,22,05,43,13.80
2016,07,22,05,44,13.80
2016,07,22,05,45,13.80
2016,07,22,05,46,13.90
2016,07,22,05,47,13.90
2016,07,22,05,48,13.90
2016,07,22,05,49,13.90
2016,07,22,05,50,13.90
2016,07,22,05,51,13.90
2016,07,22,05,52,14.00
2016,07,22,05,53,13.90
2016,07,22,05,54,13.90
2016,07,22,05,55,13.80
2016,07,22,05,56,13.80
2016,07,22,05,57,13.70
2016,07,22,05,58,13.60
2016,07,22,05,59,13.50
2016,07,22,06,00,13.40
2016,07,22,06,01,13.40
2016,07,22,06,02,13.30
2016,07,22,06,03,13.30
2016,07,22,06,04,13.30
2016,07,22,06,05,13.30
2016,07,22,06,06,13.30
2016,07,22,06,07,13.40
2016,07,22,06,08,13.50
2016,07,22,06,09,13.50
2016,07,22,06,10,13.60
2016,07,22,06,11,13.70
2016,07,22,06,12,13.80
2016,07,22,06,13,13.80
2016,07,22,06,14,13.90
2016,07,22,06,15,13.90
2016,07,22,06,16,13.90
2016,07,22,06,17,14.00
2016,07,22,06,18,14.00
2016,07,22,06,19,14.10
2016,07,22,06,20,14.10
2016,07,22,06,21,14.20
2016,07,22,06,22,14.20
2016,07,22,06,23,14.20
2016,07,22,06,24,14.20
2016,07,22,06,25,14.30
2016,07,22,06,26,14.30
2016,07,22,06,27,14.40
2016,07,22,06,28,14.40
2016,07,22,06,29,14.40
2016,07,22,06,30,14.40
2016,07,22,06,31,14.50
2016,07,22,06,32,14.50
2016,07,22,06,33,14.50
2016,07,22,06,34,14.60
2016,07,22,06,35,14.60
2016,07,22,06,36,14.60
2016,07,22,06,37,14.70
2016,07,22,06,38,14.70
2016,07,22,06,39,14.70
2016,07,22,06,40,14.70
2016,07,22,06,41,14.80
2016,07,22,06,42,14.80
2016,07,22,06,43,14.80
2016,07,22,06,44,14.80
2016,07,22,06,45,14.80
2016,07,22,06,46,14.80
2016,07,22,06,47,14.80
2016,07,22,06,48,14.80
2016,07,22,06,49,14.80
2016,07,22,06,50,14.80
2016,07,22,06,51,14.90
2016,07,22,06,52,14.90
2016,07,22,06,53,15.00
2016,07,22,06,54,15.00
2016,07,22,06,55,15.10
2016,07,22,06,56,15.10
2016,07,22,06,57,15.20
2016,07,22,06,58,15.20
2016,07,22,06,59,15.30
2016,07,22,07,00,15.30
2016,07,22,07,01,15.40
2016,07,22,07,02,15.50
2016,07,22,07,03,15.50
2016,07,22,07,04,15.60
2016,07,22,07,05,15.60
2016,07,22,07,06,15.70
2016,07,22,07,07,15.70
2016,07,22,07,08,15.80
2016,07,22,07,09,15.80
2016,07,22,07,10,15.90
2016,07,22,07,11,16.00
2016,07,22,07,12,16.00
2016,07,22,07,13,16.10
2016,07,22,07,14,16.10
2016,07,22,07,15,16.10
2016,07,22,07,16,16.20
2016,07,22,07,17,16.30
2016,07,22,07,18,16.30
2016,07,22,07,19,16.30
2016,07,22,07,20,16.40
2016,07,22,07,21,16.40
2016,07,22,07,22,16.40
2016,07,22,07,23,16.50
2016,07,22,07,24,16.50
2016,07,22,07,25,16.60
2016,07,22,07,26,16.70
2016,07,22,07,27,16.70
2016,07,22,07,28,16.80
2016,07,22,07,29,16.80
2016,07,22,07,30,16.80
2016,07,22,07,31,16.90
2016,07,22,07,32,16.90
2016,07,22,07,33,17.00
2016,07,22,07,34,17.00
2016,07,22,07,35,17.10
2016,07,22,07,36,17.10
2016,07,22,07,37,17.20
2016,07,22,07,38,17.20
2016,07,22,07,39,17.30
2016,07,22,07,40,17.40
2016,07,22,07,41,17.50
2016,07,22,07,42,17.50
2016,07,22,07,43,17.60
2016,07,22,07,44,17.70
2016,07,22,07,45,17.80
2016,07,22,07,46,17.80
2016,07,22,07,47,17.80
2016,07,22,07,48,17.90
2016,07,22,07,49,17.90
2016,07,22,07,50,18.00
2016,07,22,07,51,18.10
2016,07,22,07,52,18.10
2016,07,22,07,53,18.20
2016,07,22,07,54,18.20
2016,07,22,07,55,18.30
2016,07,22,07,56,18.30
2016,07,22,07,57,18.40
2016,07,22,07,58,18.40
2016,07,22,07,59,18.50
2016,07,22,08,00,18.60
2016,07,22,08,01,18.60
2016,07,22,08,02,18.60
2016,07,22,08,03,18.70
2016,07,22,08,04,18.70
2016,07,22,08,05,18.70
2016,07,22,08,06,18.80
2016,07,22,08,07,18.80
2016,07,22,08,08,18.90
2016,07,22,08,09,18.90
2016,07,22,08,10,18.90
2016,07,22,08,11,19.00
2016,07,22,08,12,19.00
2016,07,22,08,13,19.10
2016,07,22,08,14,19.10
2016,07,22,08,15,19.10
2016,07,22,08,16,19.10
2016,07,22,08,17,19.20
2016,07,22,08,18,19.20
2016,07,22,08,19,19.20
2016,07,22,08,20,19.30
2016,07,22,08,21,19.30
2016,07,22,08,22,19.40
2016,07,22,08,23,19.40
2016,07,22,08,24,19.40
2016,07,22,08,25,19.50
2016,07,22,08,26,19.50
2016,07,22,08,27,19.60
2016,07,22,08,28,19.60
2016,07,22,08,29,19.60
2016,07,22,08,30,19.60
2016,07,22,08,31,19.60
2016,07,22,08,32,19.50
2016,07,22,08,33,19.40
2016,07,22,08,34,19.40
2016,07,22,08,35,19.40
2016,07,22,08,36,19.40
2016,07,22,08,37,19.40
2016,07,22,08,38,19.40
2016,07,22,08,39,19.50
2016,07,22,08,40,19.50
2016,07,22,08,41,19.50
2016,07,22,08,42,19.60
2016,07,22,08,43,19.60
2016,07,22,08,44,19.70
2016,07,22,08,45,19.70
2016,07,22,08,46,19.80
2016,07,22,08,47,19.80
2016,07,22,08,48,19.80
2016,07,22,08,49,19.80
2016,07,22,08,50,19.80
2016,07,22,08,51,19.90
2016,07,22,08,52,19.90
2016,07,22,08,53,19.90
2016,07,22,08,54,19.90
2016,07,22,08,55,19.90
2016,07,22,08,56,19.90
2016,07,22,08,57,19.90
2016,07,22,08,58,19.90
2016,07,22,08,59,19.90
2016,07,22,09,00,19.90
2016,07,22,09,01,19.80
2016,07,22,09,02,19.80
2016,07,22,09,03,19.80
2016,07,22,09,04,19.80
2016,07,22,09,05,19.80
2016,07,22,09,06,19.70
2016,07,22,09,07,19.70
2016,07,22,09,08,19.70
2016,07,22,09,09,19.70
2016,07,22,09,10,19.70
2016,07,22,09,11,19.80
2016,07,22,09,12,19.80
2016,07,22,09,13,19.80
2016,07,22,09,14,19.80
2016,07,22,09,15,19.80
2016,07,22,09,16,19.80
2016,07,22,09,17,19.80
2016,07,22,09,18,19.80
2016,07,22,09,19,19.80
2016,07,22,09,20,19.90
2016,07,22,09,21,19.80
2016,07,22,09,22,19.80
2016,07,22,09,23,19.80
2016,07,22,09,24,19.80
2016,07,22,09,25,19.80
2016,07,22,09,26,19.80
2016,07,22,09,27,19.80
2016,07,22,09,28,19.90
2016,07,22,09,29,19.90
2016,07,22,09,30,20.00
2016,07,22,09,31,20.00
2016,07,22,09,32,20.10
2016,07,22,09,33,20.20
2016,07,22,09,34,20.20
2016,07,22,09,35,20.30
2016,07,22,09,36,20.30
2016,07,22,09,37,20.20
2016,07,22,09,38,20.20
2016,07,22,09,39,20.20
2016,07,22,09,40,20.10
2016,07,22,09,41,20.10
2016,07,22,09,42,20.10
2016,07,22,09,43,20.20
2016,07,22,09,44,20.20
2016,07,22,09,45,20.30
2016,07,22,09,46,20.30
2016,07,22,09,47,20.40
2016,07,22,09,48,20.40
2016,07,22,09,49,20.40
2016,07,22,09,50,20.30
2016,07,22,09,51,20.30
2016,07,22,09,52,20.30
2016,07,22,09,53,20.30
2016,07,22,09,54,20.30
2016,07,22,09,55,20.20
2016,07,22,09,56,20.20
2016,07,22,09,57,20.20
2016,07,22,09,58,20.20
2016,07,22,09,59,20.30
2016,07,22,10,00,20.30
2016,07,22,10,01,20.40
2016,07,22,10,02,20.40
2016,07,22,10,03,20.40
2016,07,22,10,04,20.40
2016,07,22,10,05,20.40
2016,07,22,10,06,20.40
2016,07,22,10,07,20.40
2016,07,22,10,08,20.30
2016,07,22,10,09,20.40
2016,07,22,10,10,20.40
2016,07,22,10,11,20.40
2016,07,22,10,12,20.40
2016,07,22,10,13,20.40
2016,07,22,10,14,20.40
2016,07,22,10,15,20.40
2016,07,22,10,16,20.40
2016,07,22,10,17,20.40
2016,07,22,10,18,20.40
2016,07,22,10,19,20.40
2016,07,22,10,20,20.40
2016,07,22,10,21,20.40
2016,07,22,10,22,20.40
2016,07,22,10,23,20.40
2016,07,22,10,24,20.50
2016,07,22,10,25,20.50
2016,07,22,10,26,20.50
2016,07,22,10,27,20.60
2016,07,22,10,28,20.60
2016,07,22,10,29,20.70
2016,07,22,10,30,20.80
2016,07,22,10,31,20.80
2016,07,22,10,32,20.90
2016,07,22,10,33,20.90
2016,07,22,10,34,20.90
2016,07,22,10,35,20.90
2016,07,22,10,36,20.90
2016,07,22,10,37,20.90
2016,07,22,10,38,21.00
2016,07,22,10,39,21.10
2016,07,22,10,40,21.10
2016,07,22,10,41,21.00
2016,07,22,10,42,21.00
2016,07,22,10,43,21.10
2016,07,22,10,44,21.10
2016,07,22,10,45,21.20
2016,07,22,10,46,21.20
2016,07,22,10,47,21.20
2016,07,22,10,48,21.20
2016,07,22,10,49,21.30
2016,07,22,10,50,21.40
2016,07,22,10,51,21.40
2016,07,22,10,52,21.40
2016,07,22,10,53,21.40
2016,07,22,10,54,21.30
2016,07,22,10,55,21.20
2016,07,22,10,56,21.20
2016,07,22,10,57,21.20
2016,07,22,10,58,21.20
2016,07,22,10,59,21.20
2016,07,22,11,00,21.20
2016,07,22,11,01,21.20
2016,07,22,11,02,21.20
2016,07,22,11,03,21.20
2016,07,22,11,04,21.20
2016,07,22,11,05,21.20
2016,07,22,11,06,21.30
2016,07,22,11,07,21.50
2016,07,22,11,08,21.50
2016,07,22,11,09,21.60
2016,07,22,11,10,21.50
2016,07,22,11,11,21.50
2016,07,22,11,12,21.50
2016,07,22,11,13,21.60
2016,07,22,11,14,21.60
2016,07,22,11,15,21.50
2016,07,22,11,16,21.40
2016,07,22,11,17,21.40
2016,07,22,11,18,21.40
2016,07,22,11,19,21.30
2016,07,22,11,20,21.30
2016,07,22,11,21,21.40
2016,07,22,11,22,21.40
2016,07,22,11,23,21.50
2016,07,22,11,24,21.70
2016,07,22,11,25,21.80
2016,07,22,11,26,21.80
2016,07,22,11,27,21.70
2016,07,22,11,28,21.70
2016,07,22,11,29,21.70
2016,07,22,11,30,21.60
2016,07,22,11,31,21.60
2016,07,22,11,32,21.60
2016,07,22,11,33,21.50
2016,07,22,11,34,21.40
2016,07,22,11,35,21.30
2016,07,22,11,36,21.20
2016,07,22,11,37,21.10
2016,07,22,11,38,21.10
2016,07,22,11,39,21.20
2016,07,22,11,40,21.20
2016,07,22,11,41,21.20
2016,07,22,11,42,21.20
2016,07,22,11,43,21.20
2016,07,22,11,44,21.20
2016,07,22,11,45,21.30
2016,07,22,11,46,21.40
2016,07,22,11,47,21.40
2016,07,22,11,48,21.50
2016,07,22,11,49,21.50
2016,07,22,11,50,21.50
2016,07,22,11,51,21.60
2016,07,22,11,52,21.70
2016,07,22,11,53,21.70
2016,07,22,11,54,21.80
2016,07,22,11,55,21.80
2016,07,22,11,56,21.70
2016,07,22,11,57,21.70
2016,07,22,11,58,21.70
2016,07,22,11,59,21.70
2016,07,22,12,00,21.70
2016,07,22,12,01,21.90
2016,07,22,12,02,22.00
2016,07,22,12,03,22.20
2016,07,22,12,04,22.20
2016,07,22,12,05,22.20
2016,07,22,12,06,22.20
2016,07,22,12,07,22.20
2016,07,22,12,08,22.10
2016,07,22,12,09,22.00
2016,07,22,12,10,22.00
2016,07,22,12,11,21.90
2016,07,22,12,12,21.80
2016,07,22,12,13,21.80
2016,07,22,12,14,21.80
2016,07,22,12,15,21.80
2016,07,22,12,16,21.80
2016,07,22,12,17,21.90
2016,07,22,12,18,22.00
2016,07,22,12,19,22.00
2016,07,22,12,20,22.10
2016,07,22,12,21,22.20
2016,07,22,12,22,22.30
2016,07,22,12,23,22.30
2016,07,22,12,24,22.40
2016,07,22,12,25,22.40
2016,07,22,12,26,22.40
2016,07,22,12,27,22.50
2016,07,22,12,28,22.60
2016,07,22,12,29,22.70
2016,07,22,12,30,22.70
2016,07,22,12,31,22.80
2016,07,22,12,32,22.80
2016,07,22,12,33,22.80
2016,07,22,12,34,22.90
2016,07,22,12,35,22.90
2016,07,22,12,36,22.90
2016,07,22,12,37,22.90
2016,07,22,12,38,22.90
2016,07,22,12,39,22.90
2016,07,22,12,40,22.80
2016,07,22,12,41,22.80
2016,07,22,12,42,22.70
2016,07,22,12,43,22.70
2016,07,22,12,44,22.60
2016,07,22,12,45,22.60
2016,07,22,12,46,22.60
2016,07,22,12,47,22.70
2016,07,22,12,48,22.70
2016,07,22,12,49,22.70
2016,07,22,12,50,22.70
2016,07,22,12,51,22.80
2016,07,22,12,52,22.90
2016,07,22,12,53,23.00
2016,07,22,12,54,23.10
2016,07,22,12,55,23.20
2016,07,22,12,56,23.20
2016,07,22,12,57,23.20
2016,07,22,12,58,23.20
2016,07,22,12,59,23.20
2016,07,22,13,00,23.20
2016,07,22,13,01,23.20
2016,07,22,13,02,23.10
2016,07,22,13,03,23.00
2016,07,22,13,04,22.90
2016,07,22,13,05,22.90
2016,07,22,13,06,22.90
2016,07,22,13,07,23.00
2016,07,22,13,08,23.00
2016,07,22,13,09,23.00
2016,07,22,13,10,22.90
2016,07,22,13,11,22.80
2016,07,22,13,12,22.70
2016,07,22,13,13,22.70
2016,07,22,13,14,22.70
2016,07,22,13,15,22.70
2016,07,22,13,16,22.70
2016,07,22,13,17,22.70
2016,07,22,13,18,22.80
2016,07,22,13,19,22.80
2016,07,22,13,20,22.80
2016,07,22,13,21,22.80
2016,07,22,13,22,22.70
2016,07,22,13,23,22.70
2016,07,22,13,24,22.60
2016,07,22,13,25,22.50
2016,07,22,13,26,22.50
2016,07,22,13,27,22.40
2016,07,22,13,28,22.40
2016,07,22,13,29,22.30
2016,07,22,13,30,22.20
2016,07,22,13,31,22.10
2016,07,22,13,32,22.10
2016,07,22,13,33,22.10
2016,07,22,13,34,22.10
2016,07,22,13,35,22.10
2016,07,22,13,36,22.10
2016,07,22,13,37,22.10
2016,07,22,13,38,22.10
2016,07,22,13,39,22.10
2016,07,22,13,40,22.10
2016,07,22,13,41,22.00
2016,07,22,13,42,22.00
2016,07,22,13,43,22.00
2016,07,22,13,44,22.00
2016,07,22,13,45,22.10
2016,07,22,13,46,22.10
2016,07,22,13,47,22.10
2016,07,22,13,48,22.20
2016,07,22,13,49,22.20
2016,07,22,13,50,22.20
2016,07,22,13,51,22.30
2016,07,22,13,52,22.30
2016,07,22,13,53,22.30
2016,07,22,13,54,22.40
2016,07,22,13,55,22.50
2016,07,22,13,56,22.60
2016,07,22,13,57,22.70
2016,07,22,13,58,22.80
2016,07,22,13,59,22.80
2016,07,22,14,00,22.80
2016,07,22,14,01,22.70
2016,07,22,14,02,22.70
2016,07,22,14,03,22.60
2016,07,22,14,04,22.60
2016,07,22,14,05,22.60
2016,07,22,14,06,22.60
2016,07,22,14,07,22.60
2016,07,22,14,08,22.60
2016,07,22,14,09,22.70
2016,07,22,14,10,22.70
2016,07,22,14,11,22.80
2016,07,22,14,12,22.90
2016,07,22,14,13,22.90
2016,07,22,14,14,23.00
2016,07,22,14,15,23.10
2016,07,22,14,16,23.10
2016,07,22,14,17,23.20
2016,07,22,14,18,23.10
2016,07,22,14,19,23.10
2016,07,22,14,20,23.10
2016,07,22,14,21,23.00
2016,07,22,14,22,22.90
2016,07,22,14,23,22.90
2016,07,22,14,24,22.80
2016,07,22,14,25,22.80
2016,07,22,14,26,22.80
2016,07,22,14,27,22.80
2016,07,22,14,28,22.80
2016,07,22,14,29,22.80
2016,07,22,14,30,22.70
2016,07,22,14,31,22.70
2016,07,22,14,32,22.80
2016,07,22,14,33,22.80
2016,07,22,14,34,22.80
2016,07,22,14,35,22.90
2016,07,22,14,36,22.90
2016,07,22,14,37,22.90
2016,07,22,14,38,22.90
2016,07,22,14,39,22.90
2016,07,22,14,40,22.80
2016,07,22,14,41,22.80
2016,07,22,14,42,22.80
2016,07,22,14,43,22.80
2016,07,22,14,44,22.80
2016,07,22,14,45,22.80
2016,07,22,14,46,22.80
2016,07,22,14,47,22.90
2016,07,22,14,48,23.00
2016,07,22,14,49,23.00
2016,07,22,14,50,23.10
2016,07,22,14,51,23.10
2016,07,22,14,52,23.10
2016,07,22,14,53,23.10
2016,07,22,14,54,23.20
2016,07,22,14,55,23.20
2016,07,22,14,56,23.30
2016,07,22,14,57,23.30
2016,07,22,14,58,23.30
2016,07,22,14,59,23.30
2016,07,22,15,00,23.30
2016,07,22,15,01,23.30
2016,07,22,15,02,23.30
2016,07,22,15,03,23.30
2016,07,22,15,04,23.30
2016,07,22,15,05,23.30
2016,07,22,15,06,23.20
2016,07,22,15,07,23.20
2016,07,22,15,08,23.20
2016,07,22,15,09,23.20
2016,07,22,15,10,23.10
2016,07,22,15,11,23.00
2016,07,22,15,12,22.90
2016,07,22,15,13,22.80
2016,07,22,15,14,22.70
2016,07,22,15,15,22.70
2016,07,22,15,16,22.60
2016,07,22,15,17,22.60
2016,07,22,15,18,22.50
2016,07,22,15,19,22.50
2016,07,22,15,20,22.40
2016,07,22,15,21,22.40
2016,07,22,15,22,22.40
2016,07,22,15,23,22.40
2016,07,22,15,24,22.40
2016,07,22,15,25,22.40
2016,07,22,15,26,22.40
2016,07,22,15,27,22.40
2016,07,22,15,28,22.40
2016,07,22,15,29,22.30
2016,07,22,15,30,22.30
2016,07,22,15,31,22.30
2016,07,22,15,32,22.30
2016,07,22,15,33,22.30
2016,07,22,15,34,22.30
2016,07,22,15,35,22.30
2016,07,22,15,36,22.30
2016,07,22,15,37,22.30
2016,07,22,15,38,22.30
2016,07,22,15,39,22.30
2016,07,22,15,40,22.30
2016,07,22,15,41,22.30
2016,07,22,15,42,22.30
2016,07,22,15,43,22.30
2016,07,22,15,44,22.30
2016,07,22,15,45,22.30
2016,07,22,15,46,22.20
2016,07,22,15,47,22.20
2016,07,22,15,48,22.20
2016,07,22,15,49,22.10
2016,07,22,15,50,22.10
2016,07,22,15,51,22.10
2016,07,22,15,52,22.10
2016,07,22,15,53,22.10
2016,07,22,15,54,22.10
2016,07,22,15,55,22.20
2016,07,22,15,56,22.20
2016,07,22,15,57,22.30
2016,07,22,15,58,22.30
2016,07,22,15,59,22.30
2016,07,22,16,00,22.30
2016,07,22,16,01,22.20
2016,07,22,16,02,22.20
2016,07,22,16,03,22.20
2016,07,22,16,04,22.20
2016,07,22,16,05,22.30
2016,07,22,16,06,22.30
2016,07,22,16,07,22.30
2016,07,22,16,08,22.30
2016,07,22,16,09,22.20
2016,07,22,16,10,22.20
2016,07,22,16,11,22.20
2016,07,22,16,12,22.20
2016,07,22,16,13,22.20
2016,07,22,16,14,22.20
2016,07,22,16,15,22.20
2016,07,22,16,16,22.30
2016,07,22,16,17,22.30
2016,07,22,16,18,22.30
2016,07,22,16,19,22.30
2016,07,22,16,20,22.30
2016,07,22,16,21,22.40
2016,07,22,16,22,22.40
2016,07,22,16,23,22.40
2016,07,22,16,24,22.40
2016,07,22,16,25,22.40
2016,07,22,16,26,22.40
2016,07,22,16,27,22.40
2016,07,22,16,28,22.40
2016,07,22,16,29,22.40
2016,07,22,16,30,22.30
2016,07,22,16,31,22.30
2016,07,22,16,32,22.30
2016,07,22,16,33,22.20
2016,07,22,16,34,22.20
2016,07,22,16,35,22.20
2016,07,22,16,36,22.20
2016,07,22,16,37,22.30
2016,07,22,16,38,22.30
2016,07,22,16,39,22.30
2016,07,22,16,40,22.30
2016,07,22,16,41,22.40
2016,07,22,16,42,22.40
2016,07,22,16,43,22.40
2016,07,22,16,44,22.50
2016,07,22,16,45,22.50
2016,07,22,16,46,22.60
2016,07,22,16,47,22.60
2016,07,22,16,48,22.60
2016,07,22,16,49,22.70
2016,07,22,16,50,22.70
2016,07,22,16,51,22.70
2016,07,22,16,52,22.70
2016,07,22,16,53,22.70
2016,07,22,16,54,22.70
2016,07,22,16,55,22.60
2016,07,22,16,56,22.60
2016,07,22,16,57,22.60
2016,07,22,16,58,22.60
2016,07,22,16,59,22.60
2016,07,22,17,00,22.60
2016,07,22,17,01,22.60
2016,07,22,17,02,22.70
2016,07,22,17,03,22.80
2016,07,22,17,04,22.80
2016,07,22,17,05,22.80
2016,07,22,17,06,22.80
2016,07,22,17,07,22.90
2016,07,22,17,08,22.90
2016,07,22,17,09,23.00
2016,07,22,17,10,23.00
2016,07,22,17,11,23.10
2016,07,22,17,12,23.20
2016,07,22,17,13,23.30
2016,07,22,17,14,23.30
2016,07,22,17,15,23.40
2016,07,22,17,16,23.40
2016,07,22,17,17,23.50
2016,07,22,17,18,23.40
2016,07,22,17,19,23.40